INTELSAT 906 (IS-906)

Last updated on Sun Dec 07 2025 00:02:45 GMT+0000 (Coordinated Universal Time)

1 27513U 02041A 25340.36808269 .00000018 00000+0 00000+0 0 9998 2 27513 5.3127 75.3075 0006036 187.7214 9.0301 1.00270373 85098
UTC large
Height (km)
Speed (km/s)
/
Latitude / Longitude
Inclination (degrees)
Orbital Period (minutes)
Azimuth
Elevation
Range (km)
Doppler Factor

Next 0 passes for location: London (51.5072 / 0.1276)

Sorry there are no passes over London.